Preview of NWS' New Version of Forecast
This preview is not operational and should not be used for support decisions.

Regional Weather Roundup (RWR)

Issued by National Weather Service (NWS)

                            
000
ASUS43 KTOP 182359
RWRKS 

WEATHER ROUNDUP FOR KANSAS
NATIONAL WEATHER SERVICE GOODLAND KS
700 PM CDT THU APR 18 2019

NOTE:  "FAIR" INDICATES FEW OR NO CLOUDS BELOW 12,000 FEET WITH NO
SIGNIFICANT WEATHER AND/OR OBSTRUCTIONS TO VISIBILITY.

KSZ001>006-013>018-027>032-041>047-190100-
NORTHWEST KANSAS
  
CITY           SKY/WX    TMP DP  RH WIND       PRES   REMARKS
GOODLAND       MOSUNNY   55  28  35 N30G39    30.08R                  
6HR MIN TEMP:  47; 6HR MAX TEMP:  61; 6HR PCP: TRACE;                

HAYS           PTSUNNY   58  34  40 N26G36    30.00R                  
HILL CITY      SUNNY     57  30  35 N29G40    30.04R                  
6HR MIN TEMP:  48; 6HR MAX TEMP:  66; 6HR PCP:  0.04;                

RUSSELL        PTSUNNY   55  36  48 NW25G38   29.97S                  
6HR MIN TEMP:  53; 6HR MAX TEMP:  68; 6HR PCP: TRACE;                

$$

KSZ061>065-074>080-084>089-190100-
SOUTHWEST KANSAS
  
CITY           SKY/WX    TMP DP  RH WIND       PRES   REMARKS
DODGE CITY     CLOUDY    57  32  38 N24G35    30.03R                  
6HR MIN TEMP:  54; 6HR MAX TEMP:  67; 6HR PCP: TRACE;                

GARDEN CITY    CLOUDY    56  33  42 N18G28    30.06R                  
6HR MIN TEMP:  51; 6HR MAX TEMP:  65; 6HR PCP: TRACE;                

GREAT BEND     LGT RAIN  54  41  61 N21G31    29.99R                  
LIBERAL        SUNNY     60  31  33 N24G31    30.05R                  
$$

KSZ066>073-081>083-090>101-190100-
SOUTHEAST KANSAS
  
CITY           SKY/WX    TMP DP  RH WIND       PRES   REMARKS
CHANUTE        SUNNY     62  38  40 N12       29.83R                  
6HR MIN TEMP:  60; 6HR MAX TEMP:  67;                                

COFFEYVILLE    SUNNY     64  38  38 N15       29.81R                  
6HR MIN TEMP:  61; 6HR MAX TEMP:  67;                                

HUTCHINSON     MOSUNNY   61  34  36 NW20G33   29.92R                  
6HR MIN TEMP:  58; 6HR MAX TEMP:  67; 6HR PCP: TRACE;                

MEDICINE LODGE   N/A     60  38  43 N14       29.95F                  
NEWTON         MOSUNNY   58  37  45 N17       29.92R                  
PARSONS          N/A     64  38  38 N12G23    29.83S                  
6HR MIN TEMP:  60; 6HR MAX TEMP:  68;                                

WICHITA INTL   PTSUNNY   61  38  42 N20G29    29.91R                  
6HR MIN TEMP:  59; 6HR MAX TEMP:  69; 6HR PCP: TRACE;                

WICHITA JABRA  CLOUDY    57  40  52 N10G21    29.91R                  
6HR MIN TEMP:  55; 6HR MAX TEMP:  67; 6HR PCP: TRACE;                

WICHITA MCCONL CLOUDY    58  41  52 N15G24    29.91R                  
WINFIELD       CLOUDY    59  45  59 NW13G21   29.91R                  
6HR MIN TEMP:  51; 6HR MAX TEMP:  68; 6HR PCP:  0.14;                

$$

KSZ007>012-019>026-033>040-048>060-102>105-190100-
NORTHEAST KANSAS
  
CITY           SKY/WX    TMP DP  RH WIND       PRES   REMARKS
CONCORDIA        N/A    N/A N/A N/A MISG      29.92R                  
EMPORIA        CLOUDY    59  38  45 N21G36    29.86R                  
6HR MIN TEMP:  56; 6HR MAX TEMP:  67; 6HR PCP: TRACE;                

LAWRENCE       CLOUDY    61  35  37 N16G31    29.84R                  
6HR MIN TEMP:  61; 6HR MAX TEMP:  66;                                

MANHATTAN      CLOUDY    62  37  39 NW7       29.88F                  
6HR MIN TEMP:  56; 6HR MAX TEMP:  67; 6HR PCP: TRACE;                

OLATHE IND     CLOUDY    58  40  51 N16       29.84S                  
6HR MIN TEMP:  55; 6HR MAX TEMP:  61;                                

OLATHE EXE     MOSUNNY   58  37  45 N18       29.84R                  
6HR MIN TEMP:  54; 6HR MAX TEMP:  61;                                

SALINA         LGT RAIN  52  43  71 NW9G35    29.95R                  
6HR MIN TEMP:  51; 6HR MAX TEMP:  68; 6HR PCP:  0.10;                

TOPEKA BILLARD MOSUNNY   62  35  36 N17G28    29.85R                  
6HR MIN TEMP:  61; 6HR MAX TEMP:  68;                                

TOPEKA FORBES  CLOUDY    61  35  37 N13G23    29.84R                  
6HR MIN TEMP:  61; 6HR MAX TEMP:  67;                                

$$